Hourly Weather Roundup
Issued by NWS Central Illinois

Home | Current Version | Previous Version | Text Only | Print | Product List | Glossary On
Versions: 1 2 3 4 5 6 7 8 9 10 11 12 13 14 15 16 17 18 19 20 21 22 23 24 25 26 27 28 29 30 31 32 33 34 35 36 37 38 39 40 41 42 43 44 45 46 47 48 49 50
000
NZUS43 KILX 282110
HWRILX

AREA WEATHER ROUNDUP
NATIONAL WEATHER SERVICE, LINCOLN IL
400 PM CDT THU APR 28 2016


CITY           SKY/WX    TMP DP  RH WIND       PRES   REMARKS
BLOOMINGTON    PTSUNNY   62  56  81 NW10      29.88R
CHAMPAIGN      PTSUNNY   68  52  56 W6        29.86R
DANVILLE       CLOUDY    65  56  74 N9        29.84R
DECATUR        PTSUNNY   67  49  52 W14G21    29.88R
EFFINGHAM      PTSUNNY   69  53  56 W12G23    29.90R
FLORA          PTSUNNY   73  53  50 W13       29.89R
GALESBURG      CLOUDY    56  48  73 W10       29.90S
JACKSONVILLE   MOSUNNY   63  50  61 W15G21    29.90S
LACON          CLOUDY    58  51  77 CALM      29.88R
LAWRENCEVILLE  PTSUNNY   73  51  46 W12       29.87R
LITCHFIELD     MOSUNNY   67  50  55 W15G21    29.90S
$$


CITY           SKY/WX    TMP DP  RH WIND       PRES   REMARKS
LINCOLN        PTSUNNY   66  50  54 W9G20     29.89R
MACOMB         CLOUDY    58  49  73 W12       29.92S
MATTOON        PTSUNNY   69  53  56 W15G24    29.87R
MT CARMEL AP   NOT AVBL
OLNEY-NOBLE AP MOSUNNY   72  54  53 W14       29.88R
PARIS          PTSUNNY   70  55  59 W13       29.86S
PEORIA         PTSUNNY   61  47  59 W17G25    29.90R
PONTIAC        CLOUDY    60  55  84 N7        29.89S
RANTOUL        PTSUNNY   66  56  70 CALM      29.86S
ROBINSON       MOSUNNY   73  53  50 W15       29.87S
SPRINGFIELD    PTSUNNY   67  52  58 W15       29.90R
TAYLORVILLE    PTSUNNY   64  52  63 W10G17    29.89F
$$

...REGIONAL REPORTS...


CITY           SKY/WX    TMP DP  RH WIND       PRES   REMARKS
CHICAGO O`HARE CLOUDY    46  40  79 NE8       29.93R
KANKAKEE       CLOUDY    59  52  77 NE6       29.89R
MOLINE         CLOUDY    55  49  80 CALM      29.89S HAZE
MOUNT STERLING PTSUNNY   59  48  67 W12       29.91S
MOUNT VERNON   SUNNY     73  52  46 W9        29.90S
PITTSFIELD     PTSUNNY   62  48  60 W10G16    29.93S
QUINCY         CLOUDY    60  48  64 W14G22    29.91S
ROCKFORD       CLOUDY    50  42  74 NE10      29.94R
$$


CITY           SKY/WX    TMP DP  RH WIND       PRES   REMARKS
BURLINGTON     CLOUDY    58  48  69 W14       29.89S
CEDAR RAPIDS   CLOUDY    52  49  89 SW9       29.88R
DES MOINES     CLOUDY    58  48  69 W17       29.90R
KIRKSVILLE     CLOUDY    58  47  66 W9        29.94R
OTTUMWA        CLOUDY    55  47  74 W13G18    29.90S
ST LOUIS       MOSUNNY   73  48  41 W10G20    29.90S
$$


CITY           SKY/WX    TMP DP  RH WIND       PRES   REMARKS
TERRE HAUTE    PTSUNNY   72  51  47 W13       29.85
EVANSVILLE     MOSUNNY   75  50  41 W15G24    29.88R
INDIANAPOLIS   PTSUNNY   68  58  70 NW16      29.83R
LAFAYETTE      PTSUNNY   61  54  77 N7        29.87R
MADISON        DRIZZLE   40  37  89 E15       29.96S WCI  32
MILWAUKEE      CLOUDY    40  37  89 E15       29.98S WCI  32
$$






USA.gov is the U.S. government's official web portal to all federal, state and local government web resources and services.